Regional Weather Roundup
Issued by NWS Newport/Morehead, NC

Current Version | Previous Version | Text Only | Print | Product List | Glossary On
Versions: 1 2 3 4 5 6 7 8 9 10 11 12 13 14 15 16 17 18 19 20 21 22 23 24 25 26 27 28 29 30 31 32 33 34 35 36 37 38 39 40 41 42 43 44 45 46 47 48 49 50
000
ASUS42 KMHX 180122
RWRMHX
WEATHER ROUNDUP FOR EASTERN NORTH CAROLINA
NATIONAL WEATHER SERVICE NEWPORT/MOREHEAD CITY NC
900 PM EDT WED SEP 17 2014

NOTE: "FAIR" INDICATES FEW OR NO CLOUDS BELOW 12,000 FEET
WITH NO SIGNIFICANT WEATHER AND/OR OBSTRUCTIONS TO VISIBILITY

NCZ015>017-031-032-045>047-102-103-180200-
NORTH COAST

CITY           SKY/WX    TMP DP  RH WIND       PRES   REMARKS
EDENTON        CLEAR     66  61  84 E5        29.95S
ELIZABETH CITY CLEAR     68  60  75 NE9       29.96R
KITTY HAWK     CLEAR     71  60  67 NE8       29.94S
MANTEO         CLEAR     71  60  69 NE14      29.95S

$$

NCZ045>047-081-094-103-104-180200-
CENTRAL COAST

CITY           SKY/WX    TMP DP  RH WIND       PRES   REMARKS
FRISCO         CLOUDY    71  64  78 NE9       29.92R
SWANQUARTER      N/A     70 N/A N/A NE7       29.88S

$$

NCZ095-097-098-100-101-180200-
SOUTHERN COAST

CITY           SKY/WX    TMP DP  RH WIND       PRES   REMARKS
BEAUFORT       PTCLDY    73  67  81 NE8       29.91R
CEDAR ISLAND     N/A     75 N/A N/A NE18G24   29.97S
JACKSONVILLE   MOCLDY    72  66  81 NE7       29.91S
NEWPORT        NOT AVBL
PINEY ISLAND   PTCLDY    75  65  70 NE16G22   29.91S
WILMINGTON     PTCLDY    72  70  93 NE8       29.91R


$$

NCZ011>013-027>030-043-044-078>080-089-090>093-098-180200-
COASTAL PLAIN

CITY           SKY/WX    TMP DP  RH WIND       PRES   REMARKS
AHOSKIE        CLEAR     64  60  88 CALM      29.97R
CLINTON        CLOUDY    72  68  88 NE3       29.94R
ELIZABETHTOWN  MOCLDY    70  67  91 CALM      29.93R
GOLDSBORO      CLEAR     69  69  98 CALM      29.93R
GREENVILLE     CLEAR     68  63  83 E3        29.97R
HAVELOCK       PTCLDY    72  65  78 NE10      29.93S
KENANSVILLE    MOCLDY    70  64  82 CALM      29.95R
KINSTON        CLEAR     70  64  83 NE7       29.95R
NEW BERN       PTCLDY    71  64  78 NE6       29.94R
RICHLANDS      CLEAR     70  64  83 N5        29.93R
ROANOKE RAPIDS NOT AVBL
ROCKY MOUNT    PTCLDY    66  63  90 CALM      29.95R
WASHINGTON     PTCLDY    67  63  86 NE3       29.95R
WHITEVILLE     CLOUDY    74  69  85 CALM      29.91R

$$

AMZ130-135-150-152-154-156-158-170-250-252-270-ANZ085-086-088-633-658-670-180200-
MARINE OBSERVATIONS

STATION/POSITION TIME  TEMP    WIND        PRES    WAVE   SWELL
                       AIR SEA DIR/SP/G            HT/PER HT/PER
                 (UTC) (F)     (DEG/KT/KT) (MB)    (FT/S) (FT/S)
CHESAPEAKE LIGHT 0100   70      70/ 15/ 16 1015.2
BUOY 44014       0100   72 77   40/ 14/ 17 1014.0    5/15   3/15
DUCK             0100   72 76   50/ 15/ 18 1013.4
2E DUCK          0100                        N/A     5/13   3/13
OREGON INLET     0100   73 76   40/ 13/ 17 1013.8
BUOY 44095       0100      76                N/A     5/14   3/14
20E OREGON INLET NOT AVBL
HATTERAS CG      0100   74 79   40/ 11/ 16 1013.5
DIAMOND BUOY     0100   75      20/ 19/ 25 1012.3    6/ 7   3/12
CAPE LOOKOUT     0100   75      50/ 20/ 22 1012.5
BEAUFORT LAB     0100   73 80   40/  8/ 12 1012.3
30 SE NEW RIVER  0100   77 82   50/ 16/ 17 1012.4    4/12   3/12
5 SE WRIGHTSVILL 0100   75 81   60/ 14/ 16   N/A
BUOY 41002       0021   78 82  340/  6/  8 1011.1    6/14   7/14
BUOY 41004       0100   81 83   20/  4/  6 1012.0    4/14   3/14

$$



USA.gov is the U.S. government's official web portal to all federal, state and local government web resources and services.